Location: Fours
(44.3167°N, 6.7000°E)
Time: 01:51:31
(UTC+00:00)

Cosmos 2297 - Visible Passes

Search period start: 16 April 2021 00:00
Search period end: 26 April 2021 00:00
Orbit: 836 x 859 km, 71.0° (Epoch: 15 April)

Date Brightness Start Highest point End Pass type
(mag) Time Alt. Az. Time Alt. Az. Time Alt. Az.
16 Apr 4.1 03:06:45 15° S 03:11:26 65° ESE 03:17:06 10° NNE visible
17 Apr 4.1 02:54:04 20° S 02:58:02 63° ESE 03:03:42 10° NNE visible
18 Apr 4.1 02:41:20 25° S 02:44:38 62° ESE 02:50:17 10° NNE visible
19 Apr 4.1 02:28:31 30° S 02:31:14 61° ESE 02:36:52 10° NNE visible
19 Apr 5.0 04:11:11 10° WSW 04:15:49 25° NW 04:20:29 10° N visible
20 Apr 4.1 02:15:39 36° S 02:17:50 59° ESE 02:23:27 10° NNE visible
20 Apr 5.0 03:57:43 10° WSW 04:02:23 25° NW 04:07:05 10° N visible
21 Apr 4.1 02:02:44 42° SSE 02:04:25 58° ESE 02:10:02 10° NNE visible
21 Apr 5.0 03:44:40 12° WSW 03:48:58 26° NW 03:53:42 10° N visible
22 Apr 4.1 01:49:46 47° SSE 01:51:01 57° ESE 01:56:37 10° NNE visible
22 Apr 5.0 03:31:42 14° W 03:35:34 26° NW 03:40:18 10° N visible
23 Apr 4.0 01:36:46 50° SE 01:37:37 55° ESE 01:43:12 10° NNE visible
23 Apr 5.0 03:18:41 16° W 03:22:07 26° NW 03:26:54 10° N visible
24 Apr 4.0 01:23:43 52° SE 01:24:13 54° ESE 01:29:47 10° NNE visible
24 Apr 5.0 03:05:38 17° W 03:08:42 27° NW 03:13:30 10° N visible
25 Apr 4.1 01:10:38 53° ESE 01:10:49 53° ESE 01:16:22 10° NE visible
25 Apr 5.0 02:52:33 19° W 02:55:17 27° NW 03:00:07 10° N visible
